Location: Fernhill
(41.0167°S, 175.6333°E)
Time: 13:27:40
(UTC+00:00)

Cosmos 1833 Rocket - Visible Passes

Search period start: 14 February 2026 00:00
Search period end: 24 February 2026 00:00
Orbit: 832 x 838 km, 71.0° (Epoch: 13 February)

Date Brightness Start Highest point End Pass type
(mag) Time Alt. Az. Time Alt. Az. Time Alt. Az.
14 Feb 5.0 12:21:47 15° ESE 12:21:47 15° ESE 12:23:08 10° SE visible
14 Feb 3.6 14:03:27 43° SSW 14:03:27 43° SSW 14:07:50 10° SSE visible
15 Feb 5.1 12:05:04 13° ESE 12:05:04 13° ESE 12:05:51 10° SE visible
15 Feb 3.7 13:46:43 41° SSW 13:46:43 41° SSW 13:50:44 10° SSE visible
16 Feb 5.2 11:48:19 11° ESE 11:48:19 11° ESE 11:48:31 10° ESE visible
16 Feb 3.9 13:29:58 39° S 13:29:58 39° S 13:33:39 10° SSE visible
16 Feb 5.0 15:12:08 10° SW 15:13:11 10° SW 15:14:15 10° SSW visible
17 Feb 4.0 13:13:12 36° S 13:13:12 36° S 13:16:33 10° SSE visible
17 Feb 5.0 14:54:52 11° SW 14:55:58 11° SW 14:57:46 10° SSW visible
18 Feb 4.2 12:56:24 33° SSE 12:56:24 33° SSE 12:59:27 10° SSE visible
18 Feb 5.0 14:38:04 12° SW 14:38:45 12° SW 14:41:04 10° SSW visible
19 Feb 4.4 12:39:35 30° SSE 12:39:35 30° SSE 12:42:21 10° SSE visible
19 Feb 5.0 14:21:15 13° SW 14:21:31 13° SW 14:24:15 10° SSW visible
20 Feb 4.5 12:22:45 27° SSE 12:22:45 27° SSE 12:25:14 10° SSE visible
20 Feb 4.9 14:04:24 15° SW 14:04:24 15° SW 14:07:23 10° SSW visible
21 Feb 4.6 12:05:54 25° SSE 12:05:54 25° SSE 12:08:07 10° SSE visible
21 Feb 4.9 13:47:32 16° SW 13:47:32 16° SW 13:50:28 10° S visible
22 Feb 4.7 11:49:00 23° SSE 11:49:00 23° SSE 11:51:00 10° SSE visible
22 Feb 4.9 13:30:38 17° SW 13:30:38 17° SW 13:33:32 10° S visible
23 Feb 4.7 11:32:04 21° SSE 11:32:04 21° SSE 11:33:52 10° SSE visible
23 Feb 4.9 13:13:44 18° SW 13:13:44 18° SW 13:16:35 10° S visible
